Year,Month,Day,Hour,Minute,Value (Times are PST for temperature in C)
2015,06,21,00,00,14.60
2015,06,21,00,01,14.60
2015,06,21,00,02,14.60
2015,06,21,00,03,14.60
2015,06,21,00,04,14.50
2015,06,21,00,05,14.50
2015,06,21,00,06,14.50
2015,06,21,00,07,14.40
2015,06,21,00,08,14.40
2015,06,21,00,09,14.40
2015,06,21,00,10,14.50
2015,06,21,00,11,14.50
2015,06,21,00,12,14.50
2015,06,21,00,13,14.50
2015,06,21,00,14,14.50
2015,06,21,00,15,14.40
2015,06,21,00,16,14.40
2015,06,21,00,17,14.40
2015,06,21,00,18,14.40
2015,06,21,00,19,14.40
2015,06,21,00,20,14.40
2015,06,21,00,21,14.40
2015,06,21,00,22,14.40
2015,06,21,00,23,14.40
2015,06,21,00,24,14.40
2015,06,21,00,25,14.40
2015,06,21,00,26,14.40
2015,06,21,00,27,14.40
2015,06,21,00,28,14.40
2015,06,21,00,29,14.40
2015,06,21,00,30,14.40
2015,06,21,00,31,14.40
2015,06,21,00,32,14.40
2015,06,21,00,33,14.40
2015,06,21,00,34,14.40
2015,06,21,00,35,14.40
2015,06,21,00,36,14.40
2015,06,21,00,37,14.40
2015,06,21,00,38,14.40
2015,06,21,00,39,14.40
2015,06,21,00,40,14.40
2015,06,21,00,41,14.40
2015,06,21,00,42,14.40
2015,06,21,00,43,14.40
2015,06,21,00,44,14.40
2015,06,21,00,45,14.40
2015,06,21,00,46,14.40
2015,06,21,00,47,14.30
2015,06,21,00,48,14.30
2015,06,21,00,49,14.30
2015,06,21,00,50,14.30
2015,06,21,00,51,14.30
2015,06,21,00,52,14.30
2015,06,21,00,53,14.30
2015,06,21,00,54,14.30
2015,06,21,00,55,14.30
2015,06,21,00,56,14.30
2015,06,21,00,57,14.30
2015,06,21,00,58,14.30
2015,06,21,00,59,14.30
2015,06,21,01,00,14.30
2015,06,21,01,01,14.30
2015,06,21,01,02,14.30
2015,06,21,01,03,14.30
2015,06,21,01,04,14.30
2015,06,21,01,05,14.30
2015,06,21,01,06,14.30
2015,06,21,01,07,14.30
2015,06,21,01,08,14.20
2015,06,21,01,09,14.20
2015,06,21,01,10,14.20
2015,06,21,01,11,14.20
2015,06,21,01,12,14.20
2015,06,21,01,13,14.20
2015,06,21,01,14,14.10
2015,06,21,01,15,14.10
2015,06,21,01,16,14.10
2015,06,21,01,17,14.10
2015,06,21,01,18,14.10
2015,06,21,01,19,14.00
2015,06,21,01,20,14.00
2015,06,21,01,21,14.00
2015,06,21,01,22,13.90
2015,06,21,01,23,13.90
2015,06,21,01,24,13.90
2015,06,21,01,25,13.90
2015,06,21,01,26,13.90
2015,06,21,01,27,13.90
2015,06,21,01,28,13.90
2015,06,21,01,29,13.90
2015,06,21,01,30,13.90
2015,06,21,01,31,13.90
2015,06,21,01,32,13.90
2015,06,21,01,33,13.80
2015,06,21,01,34,13.80
2015,06,21,01,35,13.80
2015,06,21,01,36,13.80
2015,06,21,01,37,13.80
2015,06,21,01,38,13.80
2015,06,21,01,39,13.80
2015,06,21,01,40,13.80
2015,06,21,01,41,13.90
2015,06,21,01,42,13.90
2015,06,21,01,43,13.90
2015,06,21,01,44,13.90
2015,06,21,01,45,13.90
2015,06,21,01,46,13.90
2015,06,21,01,47,13.90
2015,06,21,01,48,13.90
2015,06,21,01,49,13.90
2015,06,21,01,50,13.90
2015,06,21,01,51,14.00
2015,06,21,01,52,13.90
2015,06,21,01,53,13.90
2015,06,21,01,54,13.90
2015,06,21,01,55,13.90
2015,06,21,01,56,13.90
2015,06,21,01,57,13.90
2015,06,21,01,58,13.90
2015,06,21,01,59,13.90
2015,06,21,02,00,13.90
2015,06,21,02,01,13.80
2015,06,21,02,02,13.80
2015,06,21,02,03,13.80
2015,06,21,02,04,13.80
2015,06,21,02,05,13.80
2015,06,21,02,06,13.80
2015,06,21,02,07,13.80
2015,06,21,02,08,13.80
2015,06,21,02,09,13.80
2015,06,21,02,10,13.80
2015,06,21,02,11,13.80
2015,06,21,02,12,13.80
2015,06,21,02,13,13.80
2015,06,21,02,14,13.80
2015,06,21,02,15,13.70
2015,06,21,02,16,13.70
2015,06,21,02,17,13.70
2015,06,21,02,18,13.70
2015,06,21,02,19,13.70
2015,06,21,02,20,13.70
2015,06,21,02,21,13.70
2015,06,21,02,22,13.60
2015,06,21,02,23,13.60
2015,06,21,02,24,13.60
2015,06,21,02,25,13.60
2015,06,21,02,26,13.60
2015,06,21,02,27,13.60
2015,06,21,02,28,13.60
2015,06,21,02,29,13.50
2015,06,21,02,30,13.50
2015,06,21,02,31,13.50
2015,06,21,02,32,13.50
2015,06,21,02,33,13.50
2015,06,21,02,34,13.50
2015,06,21,02,35,13.50
2015,06,21,02,36,13.50
2015,06,21,02,37,13.50
2015,06,21,02,38,13.50
2015,06,21,02,39,13.50
2015,06,21,02,40,13.50
2015,06,21,02,41,13.50
2015,06,21,02,42,13.50
2015,06,21,02,43,13.40
2015,06,21,02,44,13.40
2015,06,21,02,45,13.40
2015,06,21,02,46,13.40
2015,06,21,02,47,13.40
2015,06,21,02,48,13.40
2015,06,21,02,49,13.40
2015,06,21,02,50,13.40
2015,06,21,02,51,13.40
2015,06,21,02,52,13.40
2015,06,21,02,53,13.40
2015,06,21,02,54,13.40
2015,06,21,02,55,13.40
2015,06,21,02,56,13.40
2015,06,21,02,57,13.40
2015,06,21,02,58,13.40
2015,06,21,02,59,13.30
2015,06,21,03,00,13.30
2015,06,21,03,01,13.30
2015,06,21,03,02,13.30
2015,06,21,03,03,13.30
2015,06,21,03,04,13.30
2015,06,21,03,05,13.30
2015,06,21,03,06,13.30
2015,06,21,03,07,13.30
2015,06,21,03,08,13.30
2015,06,21,03,09,13.30
2015,06,21,03,10,13.30
2015,06,21,03,11,13.30
2015,06,21,03,12,13.30
2015,06,21,03,13,13.20
2015,06,21,03,14,13.20
2015,06,21,03,15,13.20
2015,06,21,03,16,13.20
2015,06,21,03,17,13.20
2015,06,21,03,18,13.20
2015,06,21,03,19,13.10
2015,06,21,03,20,13.10
2015,06,21,03,21,13.10
2015,06,21,03,22,13.10
2015,06,21,03,23,13.10
2015,06,21,03,24,13.10
2015,06,21,03,25,13.10
2015,06,21,03,26,13.00
2015,06,21,03,27,13.00
2015,06,21,03,28,13.00
2015,06,21,03,29,13.00
2015,06,21,03,30,13.00
2015,06,21,03,31,13.00
2015,06,21,03,32,12.90
2015,06,21,03,33,12.90
2015,06,21,03,34,12.90
2015,06,21,03,35,12.90
2015,06,21,03,36,12.90
2015,06,21,03,37,12.90
2015,06,21,03,38,12.90
2015,06,21,03,39,12.80
2015,06,21,03,40,12.80
2015,06,21,03,41,12.80
2015,06,21,03,42,12.80
2015,06,21,03,43,12.80
2015,06,21,03,44,12.80
2015,06,21,03,45,12.80
2015,06,21,03,46,12.80
2015,06,21,03,47,12.70
2015,06,21,03,48,12.70
2015,06,21,03,49,12.70
2015,06,21,03,50,12.70
2015,06,21,03,51,12.70
2015,06,21,03,52,12.70
2015,06,21,03,53,12.70
2015,06,21,03,54,12.70
2015,06,21,03,55,12.70
2015,06,21,03,56,12.70
2015,06,21,03,57,12.70
2015,06,21,03,58,12.70
2015,06,21,03,59,12.70
2015,06,21,04,00,12.70
2015,06,21,04,01,12.70
2015,06,21,04,02,12.70
2015,06,21,04,03,12.70
2015,06,21,04,04,12.70
2015,06,21,04,05,12.70
2015,06,21,04,06,12.70
2015,06,21,04,07,12.70
2015,06,21,04,08,12.70
2015,06,21,04,09,12.70
2015,06,21,04,10,12.70
2015,06,21,04,11,12.70
2015,06,21,04,12,12.70
2015,06,21,04,13,12.70
2015,06,21,04,14,12.70
2015,06,21,04,15,12.70
2015,06,21,04,16,12.70
2015,06,21,04,17,12.70
2015,06,21,04,18,12.60
2015,06,21,04,19,12.60
2015,06,21,04,20,12.60
2015,06,21,04,21,12.60
2015,06,21,04,22,12.50
2015,06,21,04,23,12.50
2015,06,21,04,24,12.50
2015,06,21,04,25,12.40
2015,06,21,04,26,12.40
2015,06,21,04,27,12.40
2015,06,21,04,28,12.30
2015,06,21,04,29,12.30
2015,06,21,04,30,12.20
2015,06,21,04,31,12.20
2015,06,21,04,32,12.10
2015,06,21,04,33,12.10
2015,06,21,04,34,12.10
2015,06,21,04,35,12.00
2015,06,21,04,36,12.00
2015,06,21,04,37,11.90
2015,06,21,04,38,11.90
2015,06,21,04,39,11.90
2015,06,21,04,40,11.90
2015,06,21,04,41,11.90
2015,06,21,04,42,11.80
2015,06,21,04,43,11.80
2015,06,21,04,44,11.80
2015,06,21,04,45,11.80
2015,06,21,04,46,11.70
2015,06,21,04,47,11.70
2015,06,21,04,48,11.70
2015,06,21,04,49,11.60
2015,06,21,04,50,11.60
2015,06,21,04,51,11.60
2015,06,21,04,52,11.50
2015,06,21,04,53,11.50
2015,06,21,04,54,11.40
2015,06,21,04,55,11.40
2015,06,21,04,56,11.30
2015,06,21,04,57,11.30
2015,06,21,04,58,11.30
2015,06,21,04,59,11.20
2015,06,21,05,00,11.20
2015,06,21,05,01,11.10
2015,06,21,05,02,11.10
2015,06,21,05,03,11.00
2015,06,21,05,04,11.00
2015,06,21,05,05,10.90
2015,06,21,05,06,10.90
2015,06,21,05,07,10.90
2015,06,21,05,08,10.80
2015,06,21,05,09,10.80
2015,06,21,05,10,10.80
2015,06,21,05,11,10.80
2015,06,21,05,12,10.70
2015,06,21,05,13,10.70
2015,06,21,05,14,10.70
2015,06,21,05,15,10.70
2015,06,21,05,16,10.60
2015,06,21,05,17,10.60
2015,06,21,05,18,10.60
2015,06,21,05,19,10.60
2015,06,21,05,20,10.50
2015,06,21,05,21,10.50
2015,06,21,05,22,10.50
2015,06,21,05,23,10.40
2015,06,21,05,24,10.40
2015,06,21,05,25,10.30
2015,06,21,05,26,10.30
2015,06,21,05,27,10.30
2015,06,21,05,28,10.30
2015,06,21,05,29,10.20
2015,06,21,05,30,10.20
2015,06,21,05,31,10.20
2015,06,21,05,32,10.20
2015,06,21,05,33,10.20
2015,06,21,05,34,10.20
2015,06,21,05,35,10.20
2015,06,21,05,36,10.20
2015,06,21,05,37,10.20
2015,06,21,05,38,10.10
2015,06,21,05,39,10.10
2015,06,21,05,40,10.10
2015,06,21,05,41,10.20
2015,06,21,05,42,10.20
2015,06,21,05,43,10.20
2015,06,21,05,44,10.20
2015,06,21,05,45,10.20
2015,06,21,05,46,10.20
2015,06,21,05,47,10.20
2015,06,21,05,48,10.20
2015,06,21,05,49,10.20
2015,06,21,05,50,10.20
2015,06,21,05,51,10.30
2015,06,21,05,52,10.30
2015,06,21,05,53,10.30
2015,06,21,05,54,10.40
2015,06,21,05,55,10.50
2015,06,21,05,56,10.50
2015,06,21,05,57,10.60
2015,06,21,05,58,10.60
2015,06,21,05,59,10.70
2015,06,21,06,00,10.80
2015,06,21,06,01,10.80
2015,06,21,06,02,10.80
2015,06,21,06,03,10.90
2015,06,21,06,04,11.00
2015,06,21,06,05,11.00
2015,06,21,06,06,11.00
2015,06,21,06,07,11.10
2015,06,21,06,08,11.10
2015,06,21,06,09,11.20
2015,06,21,06,10,11.20
2015,06,21,06,11,11.20
2015,06,21,06,12,11.30
2015,06,21,06,13,11.30
2015,06,21,06,14,11.40
2015,06,21,06,15,11.40
2015,06,21,06,16,11.50
2015,06,21,06,17,11.60
2015,06,21,06,18,11.60
2015,06,21,06,19,11.60
2015,06,21,06,20,11.70
2015,06,21,06,21,11.80
2015,06,21,06,22,11.80
2015,06,21,06,23,11.80
2015,06,21,06,24,11.90
2015,06,21,06,25,12.00
2015,06,21,06,26,12.00
2015,06,21,06,27,12.10
2015,06,21,06,28,12.10
2015,06,21,06,29,12.20
2015,06,21,06,30,12.20
2015,06,21,06,31,12.20
2015,06,21,06,32,12.30
2015,06,21,06,33,12.30
2015,06,21,06,34,12.40
2015,06,21,06,35,12.40
2015,06,21,06,36,12.40
2015,06,21,06,37,12.50
2015,06,21,06,38,12.50
2015,06,21,06,39,12.60
2015,06,21,06,40,12.60
2015,06,21,06,41,12.60
2015,06,21,06,42,12.60
2015,06,21,06,43,12.70
2015,06,21,06,44,12.70
2015,06,21,06,45,12.70
2015,06,21,06,46,12.80
2015,06,21,06,47,12.80
2015,06,21,06,48,12.80
2015,06,21,06,49,12.90
2015,06,21,06,50,12.90
2015,06,21,06,51,12.90
2015,06,21,06,52,12.90
2015,06,21,06,53,13.00
2015,06,21,06,54,13.00
2015,06,21,06,55,13.10
2015,06,21,06,56,13.10
2015,06,21,06,57,13.20
2015,06,21,06,58,13.20
2015,06,21,06,59,13.20
2015,06,21,07,00,13.20
2015,06,21,07,01,13.20
2015,06,21,07,02,13.20
2015,06,21,07,03,13.20
2015,06,21,07,04,13.20
2015,06,21,07,05,13.30
2015,06,21,07,06,13.30
2015,06,21,07,07,13.30
2015,06,21,07,08,13.30
2015,06,21,07,09,13.30
2015,06,21,07,10,13.40
2015,06,21,07,11,13.40
2015,06,21,07,12,13.40
2015,06,21,07,13,13.50
2015,06,21,07,14,13.50
2015,06,21,07,15,13.60
2015,06,21,07,16,13.60
2015,06,21,07,17,13.60
2015,06,21,07,18,13.60
2015,06,21,07,19,13.70
2015,06,21,07,20,13.70
2015,06,21,07,21,13.70
2015,06,21,07,22,13.80
2015,06,21,07,23,13.80
2015,06,21,07,24,13.80
2015,06,21,07,25,13.80
2015,06,21,07,26,13.90
2015,06,21,07,27,13.90
2015,06,21,07,28,13.90
2015,06,21,07,29,13.90
2015,06,21,07,30,13.90
2015,06,21,07,31,13.90
2015,06,21,07,32,13.90
2015,06,21,07,33,13.90
2015,06,21,07,34,13.90
2015,06,21,07,35,13.90
2015,06,21,07,36,13.90
2015,06,21,07,37,14.00
2015,06,21,07,38,14.00
2015,06,21,07,39,14.00
2015,06,21,07,40,14.00
2015,06,21,07,41,14.00
2015,06,21,07,42,14.00
2015,06,21,07,43,14.00
2015,06,21,07,44,14.00
2015,06,21,07,45,14.00
2015,06,21,07,46,14.00
2015,06,21,07,47,14.00
2015,06,21,07,48,14.10
2015,06,21,07,49,14.10
2015,06,21,07,50,14.10
2015,06,21,07,51,14.20
2015,06,21,07,52,14.20
2015,06,21,07,53,14.20
2015,06,21,07,54,14.30
2015,06,21,07,55,14.30
2015,06,21,07,56,14.30
2015,06,21,07,57,14.40
2015,06,21,07,58,14.40
2015,06,21,07,59,14.40
2015,06,21,08,00,14.40
2015,06,21,08,01,14.40
2015,06,21,08,02,14.40
2015,06,21,08,03,14.50
2015,06,21,08,04,14.50
2015,06,21,08,05,14.50
2015,06,21,08,06,14.50
2015,06,21,08,07,14.50
2015,06,21,08,08,14.60
2015,06,21,08,09,14.60
2015,06,21,08,10,14.70
2015,06,21,08,11,14.70
2015,06,21,08,12,14.70
2015,06,21,08,13,14.70
2015,06,21,08,14,14.70
2015,06,21,08,15,14.70
2015,06,21,08,16,14.70
2015,06,21,08,17,14.70
2015,06,21,08,18,14.70
2015,06,21,08,19,14.70
2015,06,21,08,20,14.80
2015,06,21,08,21,14.80
2015,06,21,08,22,14.90
2015,06,21,08,23,14.90
2015,06,21,08,24,15.00
2015,06,21,08,25,15.00
2015,06,21,08,26,15.10
2015,06,21,08,27,15.10
2015,06,21,08,28,15.20
2015,06,21,08,29,15.20
2015,06,21,08,30,15.20
2015,06,21,08,31,15.20
2015,06,21,08,32,15.30
2015,06,21,08,33,15.30
2015,06,21,08,34,15.30
2015,06,21,08,35,15.40
2015,06,21,08,36,15.40
2015,06,21,08,37,15.40
2015,06,21,08,38,15.50
2015,06,21,08,39,15.50
2015,06,21,08,40,15.50
2015,06,21,08,41,15.50
2015,06,21,08,42,15.50
2015,06,21,08,43,15.60
2015,06,21,08,44,15.60
2015,06,21,08,45,15.60
2015,06,21,08,46,15.60
2015,06,21,08,47,15.70
2015,06,21,08,48,15.60
2015,06,21,08,49,15.60
2015,06,21,08,50,15.60
2015,06,21,08,51,15.60
2015,06,21,08,52,15.70
2015,06,21,08,53,15.70
2015,06,21,08,54,15.70
2015,06,21,08,55,15.70
2015,06,21,08,56,15.70
2015,06,21,08,57,15.70
2015,06,21,08,58,15.70
2015,06,21,08,59,15.70
2015,06,21,09,00,15.70
2015,06,21,09,01,15.70
2015,06,21,09,02,15.70
2015,06,21,09,03,15.80
2015,06,21,09,04,15.80
2015,06,21,09,05,15.80
2015,06,21,09,06,15.80
2015,06,21,09,07,15.80
2015,06,21,09,08,15.90
2015,06,21,09,09,16.00
2015,06,21,09,10,16.00
2015,06,21,09,11,16.10
2015,06,21,09,12,16.20
2015,06,21,09,13,16.20
2015,06,21,09,14,16.30
2015,06,21,09,15,16.30
2015,06,21,09,16,16.40
2015,06,21,09,17,16.50
2015,06,21,09,18,16.50
2015,06,21,09,19,16.60
2015,06,21,09,20,16.60
2015,06,21,09,21,16.60
2015,06,21,09,22,16.50
2015,06,21,09,23,16.50
2015,06,21,09,24,16.50
2015,06,21,09,25,16.50
2015,06,21,09,26,16.50
2015,06,21,09,27,16.60
2015,06,21,09,28,16.60
2015,06,21,09,29,16.60
2015,06,21,09,30,16.50
2015,06,21,09,31,16.50
2015,06,21,09,32,16.50
2015,06,21,09,33,16.50
2015,06,21,09,34,16.50
2015,06,21,09,35,16.50
2015,06,21,09,36,16.50
2015,06,21,09,37,16.50
2015,06,21,09,38,16.50
2015,06,21,09,39,16.60
2015,06,21,09,40,16.60
2015,06,21,09,41,16.70
2015,06,21,09,42,16.80
2015,06,21,09,43,16.80
2015,06,21,09,44,16.80
2015,06,21,09,45,16.70
2015,06,21,09,46,16.60
2015,06,21,09,47,16.60
2015,06,21,09,48,16.60
2015,06,21,09,49,16.60
2015,06,21,09,50,16.60
2015,06,21,09,51,16.60
2015,06,21,09,52,16.60
2015,06,21,09,53,16.60
2015,06,21,09,54,16.60
2015,06,21,09,55,16.70
2015,06,21,09,56,16.60
2015,06,21,09,57,16.60
2015,06,21,09,58,16.70
2015,06,21,09,59,16.70
2015,06,21,10,00,16.70
2015,06,21,10,01,16.70
2015,06,21,10,02,16.70
2015,06,21,10,03,16.70
2015,06,21,10,04,16.70
2015,06,21,10,05,16.70
2015,06,21,10,06,16.70
2015,06,21,10,07,16.60
2015,06,21,10,08,16.70
2015,06,21,10,09,16.70
2015,06,21,10,10,16.70
2015,06,21,10,11,16.70
2015,06,21,10,12,16.70
2015,06,21,10,13,16.70
2015,06,21,10,14,16.70
2015,06,21,10,15,16.70
2015,06,21,10,16,16.70
2015,06,21,10,17,16.70
2015,06,21,10,18,16.70
2015,06,21,10,19,16.70
2015,06,21,10,20,16.80
2015,06,21,10,21,16.80
2015,06,21,10,22,16.90
2015,06,21,10,23,16.90
2015,06,21,10,24,16.90
2015,06,21,10,25,16.90
2015,06,21,10,26,16.90
2015,06,21,10,27,17.00
2015,06,21,10,28,17.00
2015,06,21,10,29,17.10
2015,06,21,10,30,17.10
2015,06,21,10,31,17.10
2015,06,21,10,32,17.20
2015,06,21,10,33,17.20
2015,06,21,10,34,17.30
2015,06,21,10,35,17.40
2015,06,21,10,36,17.40
2015,06,21,10,37,17.40
2015,06,21,10,38,17.40
2015,06,21,10,39,17.40
2015,06,21,10,40,17.40
2015,06,21,10,41,17.40
2015,06,21,10,42,17.30
2015,06,21,10,43,17.40
2015,06,21,10,44,17.40
2015,06,21,10,45,17.40
2015,06,21,10,46,17.40
2015,06,21,10,47,17.50
2015,06,21,10,48,17.60
2015,06,21,10,49,17.60
2015,06,21,10,50,17.70
2015,06,21,10,51,17.80
2015,06,21,10,52,17.80
2015,06,21,10,53,17.90
2015,06,21,10,54,17.90
2015,06,21,10,55,17.90
2015,06,21,10,56,17.90
2015,06,21,10,57,18.00
2015,06,21,10,58,18.00
2015,06,21,10,59,18.00
2015,06,21,11,00,18.10
2015,06,21,11,01,18.10
2015,06,21,11,02,18.10
2015,06,21,11,03,18.10
2015,06,21,11,04,18.20
2015,06,21,11,05,18.20
2015,06,21,11,06,18.20
2015,06,21,11,07,18.30
2015,06,21,11,08,18.30
2015,06,21,11,09,18.30
2015,06,21,11,10,18.30
2015,06,21,11,11,18.30
2015,06,21,11,12,18.30
2015,06,21,11,13,18.40
2015,06,21,11,14,18.40
2015,06,21,11,15,18.40
2015,06,21,11,16,18.50
2015,06,21,11,17,18.60
2015,06,21,11,18,18.70
2015,06,21,11,19,18.80
2015,06,21,11,20,18.80
2015,06,21,11,21,18.80
2015,06,21,11,22,18.90
2015,06,21,11,23,18.90
2015,06,21,11,24,18.90
2015,06,21,11,25,18.90
2015,06,21,11,26,18.80
2015,06,21,11,27,18.80
2015,06,21,11,28,18.80
2015,06,21,11,29,18.80
2015,06,21,11,30,18.80
2015,06,21,11,31,18.80
2015,06,21,11,32,18.80
2015,06,21,11,33,18.90
2015,06,21,11,34,18.90
2015,06,21,11,35,18.90
2015,06,21,11,36,19.00
2015,06,21,11,37,19.10
2015,06,21,11,38,19.20
2015,06,21,11,39,19.30
2015,06,21,11,40,19.30
2015,06,21,11,41,19.40
2015,06,21,11,42,19.50
2015,06,21,11,43,19.60
2015,06,21,11,44,19.70
2015,06,21,11,45,19.80
2015,06,21,11,46,19.80
2015,06,21,11,47,19.90
2015,06,21,11,48,19.90
2015,06,21,11,49,19.90
2015,06,21,11,50,19.90
2015,06,21,11,51,19.90
2015,06,21,11,52,19.90
2015,06,21,11,53,19.90
2015,06,21,11,54,20.00
2015,06,21,11,55,20.00
2015,06,21,11,56,20.10
2015,06,21,11,57,20.10
2015,06,21,11,58,20.10
2015,06,21,11,59,20.00
2015,06,21,12,00,20.00
2015,06,21,12,01,19.90
2015,06,21,12,02,19.90
2015,06,21,12,03,20.00
2015,06,21,12,04,20.00
2015,06,21,12,05,20.00
2015,06,21,12,06,20.00
2015,06,21,12,07,20.00
2015,06,21,12,08,20.10
2015,06,21,12,09,20.10
2015,06,21,12,10,20.20
2015,06,21,12,11,20.20
2015,06,21,12,12,20.30
2015,06,21,12,13,20.30
2015,06,21,12,14,20.30
2015,06,21,12,15,20.30
2015,06,21,12,16,20.30
2015,06,21,12,17,20.30
2015,06,21,12,18,20.20
2015,06,21,12,19,20.20
2015,06,21,12,20,20.20
2015,06,21,12,21,20.20
2015,06,21,12,22,20.20
2015,06,21,12,23,20.20
2015,06,21,12,24,20.20
2015,06,21,12,25,20.10
2015,06,21,12,26,20.10
2015,06,21,12,27,20.10
2015,06,21,12,28,20.20
2015,06,21,12,29,20.30
2015,06,21,12,30,20.50
2015,06,21,12,31,20.60
2015,06,21,12,32,20.70
2015,06,21,12,33,20.70
2015,06,21,12,34,20.70
2015,06,21,12,35,20.80
2015,06,21,12,36,20.80
2015,06,21,12,37,20.80
2015,06,21,12,38,20.90
2015,06,21,12,39,20.90
2015,06,21,12,40,21.00
2015,06,21,12,41,21.00
2015,06,21,12,42,21.10
2015,06,21,12,43,21.20
2015,06,21,12,44,21.20
2015,06,21,12,45,21.20
2015,06,21,12,46,21.20
2015,06,21,12,47,21.10
2015,06,21,12,48,21.10
2015,06,21,12,49,21.10
2015,06,21,12,50,21.10
2015,06,21,12,51,21.20
2015,06,21,12,52,21.20
2015,06,21,12,53,21.20
2015,06,21,12,54,21.10
2015,06,21,12,55,21.10
2015,06,21,12,56,21.10
2015,06,21,12,57,21.10
2015,06,21,12,58,21.00
2015,06,21,12,59,21.00
2015,06,21,13,00,21.00
2015,06,21,13,01,21.10
2015,06,21,13,02,21.20
2015,06,21,13,03,21.30
2015,06,21,13,04,21.40
2015,06,21,13,05,21.50
2015,06,21,13,06,21.60
2015,06,21,13,07,21.70
2015,06,21,13,08,21.80
2015,06,21,13,09,21.80
2015,06,21,13,10,21.80
2015,06,21,13,11,21.80
2015,06,21,13,12,21.80
2015,06,21,13,13,21.80
2015,06,21,13,14,21.80
2015,06,21,13,15,21.80
2015,06,21,13,16,21.80
2015,06,21,13,17,21.80
2015,06,21,13,18,21.90
2015,06,21,13,19,21.90
2015,06,21,13,20,21.90
2015,06,21,13,21,21.90
2015,06,21,13,22,21.90
2015,06,21,13,23,21.80
2015,06,21,13,24,21.80
2015,06,21,13,25,21.70
2015,06,21,13,26,21.70
2015,06,21,13,27,21.80
2015,06,21,13,28,21.70
2015,06,21,13,29,21.70
2015,06,21,13,30,21.80
2015,06,21,13,31,21.80
2015,06,21,13,32,21.90
2015,06,21,13,33,21.90
2015,06,21,13,34,22.00
2015,06,21,13,35,22.00
2015,06,21,13,36,22.10
2015,06,21,13,37,22.10
2015,06,21,13,38,22.20
2015,06,21,13,39,22.20
2015,06,21,13,40,22.30
2015,06,21,13,41,22.30
2015,06,21,13,42,22.40
2015,06,21,13,43,22.50
2015,06,21,13,44,22.60
2015,06,21,13,45,22.60
2015,06,21,13,46,22.70
2015,06,21,13,47,22.70
2015,06,21,13,48,22.70
2015,06,21,13,49,22.70
2015,06,21,13,50,22.80
2015,06,21,13,51,22.80
2015,06,21,13,52,22.80
2015,06,21,13,53,22.80
2015,06,21,13,54,22.80
2015,06,21,13,55,22.80
2015,06,21,13,56,22.80
2015,06,21,13,57,22.80
2015,06,21,13,58,22.80
2015,06,21,13,59,22.80
2015,06,21,14,00,22.90
2015,06,21,14,01,22.90
2015,06,21,14,02,23.00
2015,06,21,14,03,23.10
2015,06,21,14,04,23.20
2015,06,21,14,05,23.30
2015,06,21,14,06,23.30
2015,06,21,14,07,23.30
2015,06,21,14,08,23.30
2015,06,21,14,09,23.30
2015,06,21,14,10,23.40
2015,06,21,14,11,23.40
2015,06,21,14,12,23.40
2015,06,21,14,13,23.40
2015,06,21,14,14,23.40
2015,06,21,14,15,23.30
2015,06,21,14,16,23.30
2015,06,21,14,17,23.20
2015,06,21,14,18,23.10
2015,06,21,14,19,23.10
2015,06,21,14,20,23.00
2015,06,21,14,21,23.00
2015,06,21,14,22,23.00
2015,06,21,14,23,23.00
2015,06,21,14,24,23.00
2015,06,21,14,25,23.00
2015,06,21,14,26,23.00
2015,06,21,14,27,23.10
2015,06,21,14,28,23.10
2015,06,21,14,29,23.10
2015,06,21,14,30,23.10
2015,06,21,14,31,23.10
2015,06,21,14,32,23.10
2015,06,21,14,33,23.10
2015,06,21,14,34,23.20
2015,06,21,14,35,23.20
2015,06,21,14,36,23.10
2015,06,21,14,37,23.10
2015,06,21,14,38,23.10
2015,06,21,14,39,23.10
2015,06,21,14,40,23.10
2015,06,21,14,41,23.10
2015,06,21,14,42,23.00
2015,06,21,14,43,23.00
2015,06,21,14,44,23.10
2015,06,21,14,45,23.10
2015,06,21,14,46,23.20
2015,06,21,14,47,23.30
2015,06,21,14,48,23.40
2015,06,21,14,49,23.50
2015,06,21,14,50,23.60
2015,06,21,14,51,23.60
2015,06,21,14,52,23.70
2015,06,21,14,53,23.80
2015,06,21,14,54,23.90
2015,06,21,14,55,24.00
2015,06,21,14,56,24.00
2015,06,21,14,57,24.00
2015,06,21,14,58,24.00
2015,06,21,14,59,24.00
2015,06,21,15,00,23.90
2015,06,21,15,01,23.80
2015,06,21,15,02,23.60
2015,06,21,15,03,23.60
2015,06,21,15,04,23.50
2015,06,21,15,05,23.50
2015,06,21,15,06,23.50
2015,06,21,15,07,23.60
2015,06,21,15,08,23.70
2015,06,21,15,09,23.70
2015,06,21,15,10,23.80
2015,06,21,15,11,23.80
2015,06,21,15,12,23.80
2015,06,21,15,13,23.80
2015,06,21,15,14,23.80
2015,06,21,15,15,23.80
2015,06,21,15,16,23.80
2015,06,21,15,17,23.80
2015,06,21,15,18,23.90
2015,06,21,15,19,23.90
2015,06,21,15,20,24.00
2015,06,21,15,21,24.00
2015,06,21,15,22,24.10
2015,06,21,15,23,24.10
2015,06,21,15,24,24.10
2015,06,21,15,25,24.10
2015,06,21,15,26,24.10
2015,06,21,15,27,24.10
2015,06,21,15,28,24.10
2015,06,21,15,29,24.10
2015,06,21,15,30,24.10
2015,06,21,15,31,24.10
2015,06,21,15,32,24.20
2015,06,21,15,33,24.20
2015,06,21,15,34,24.30
2015,06,21,15,35,24.30
2015,06,21,15,36,24.30
2015,06,21,15,37,24.40
2015,06,21,15,38,24.30
2015,06,21,15,39,24.30
2015,06,21,15,40,24.20
2015,06,21,15,41,24.20
2015,06,21,15,42,24.10
2015,06,21,15,43,24.10
2015,06,21,15,44,24.10
2015,06,21,15,45,24.20
2015,06,21,15,46,24.30
2015,06,21,15,47,24.30
2015,06,21,15,48,24.30
2015,06,21,15,49,24.40
2015,06,21,15,50,24.40
2015,06,21,15,51,24.40
2015,06,21,15,52,24.50
2015,06,21,15,53,24.50
2015,06,21,15,54,24.60
2015,06,21,15,55,24.70
2015,06,21,15,56,24.70
2015,06,21,15,57,24.70
2015,06,21,15,58,24.70
2015,06,21,15,59,24.70
2015,06,21,16,00,24.70
2015,06,21,16,01,24.70
2015,06,21,16,02,24.70
2015,06,21,16,03,24.70
2015,06,21,16,04,24.80
2015,06,21,16,05,24.80
2015,06,21,16,06,24.70
2015,06,21,16,07,24.70
2015,06,21,16,08,24.70
2015,06,21,16,09,24.70
2015,06,21,16,10,24.80
2015,06,21,16,11,24.80
2015,06,21,16,12,24.90
2015,06,21,16,13,24.90
2015,06,21,16,14,24.90
2015,06,21,16,15,24.90
2015,06,21,16,16,24.90
2015,06,21,16,17,25.00
2015,06,21,16,18,25.10
2015,06,21,16,19,25.20
2015,06,21,16,20,25.30
2015,06,21,16,21,25.30
2015,06,21,16,22,25.40
2015,06,21,16,23,25.40
2015,06,21,16,24,25.30
2015,06,21,16,25,25.10
2015,06,21,16,26,25.00
2015,06,21,16,27,24.90
2015,06,21,16,28,24.80
2015,06,21,16,29,24.80
2015,06,21,16,30,24.80
2015,06,21,16,31,24.70
2015,06,21,16,32,24.70
2015,06,21,16,33,24.60
2015,06,21,16,34,24.50
2015,06,21,16,35,24.50
2015,06,21,16,36,24.40
2015,06,21,16,37,24.40
2015,06,21,16,38,24.40
2015,06,21,16,39,24.40
2015,06,21,16,40,24.40
2015,06,21,16,41,24.40
2015,06,21,16,42,24.50
2015,06,21,16,43,24.50
2015,06,21,16,44,24.60
2015,06,21,16,45,24.60
2015,06,21,16,46,24.70
2015,06,21,16,47,24.70
2015,06,21,16,48,24.80
2015,06,21,16,49,24.80
2015,06,21,16,50,24.80
2015,06,21,16,51,24.80
2015,06,21,16,52,24.80
2015,06,21,16,53,24.70
2015,06,21,16,54,24.70
2015,06,21,16,55,24.70
2015,06,21,16,56,24.70
2015,06,21,16,57,24.70
2015,06,21,16,58,24.80
2015,06,21,16,59,24.90
2015,06,21,17,00,24.90
2015,06,21,17,01,25.00
2015,06,21,17,02,25.10
2015,06,21,17,03,25.10
2015,06,21,17,04,25.20
2015,06,21,17,05,25.30
2015,06,21,17,06,25.40
2015,06,21,17,07,25.40
2015,06,21,17,08,25.40
2015,06,21,17,09,25.40
2015,06,21,17,10,25.40
2015,06,21,17,11,25.40
2015,06,21,17,12,25.40
2015,06,21,17,13,25.40
2015,06,21,17,14,25.40
2015,06,21,17,15,25.40
2015,06,21,17,16,25.40
2015,06,21,17,17,25.30
2015,06,21,17,18,25.30
2015,06,21,17,19,25.30